﻿_id,日時,平均風速(m/s),平均風向,最大瞬間風速(m/s),最大風速時風向,気温(℃),湿度(%),10分間移動積算雨量(mm),1時間移動積算雨量(mm),日雨量(mm),累計雨量(mm)
1,2020-02-17T00:00:00,1.8,南南西,2.7,南,9.5,76.1,0,0,6.5,6.5
2,2020-02-17T00:01:00,1.7,南南西,2.7,南,9.4,77.2,0,0,0,6.5
3,2020-02-17T00:02:00,1.5,南南西,2.7,南,9.6,76.2,0,0,0,6.5
4,2020-02-17T00:03:00,1.4,南南西,2.7,南,9.8,73,0,0,0,6.5
5,2020-02-17T00:04:00,1.4,南西,2.7,南,9.7,73.7,0,0,0,6.5
6,2020-02-17T00:05:00,1.4,南西,3,南南西,9.6,75.5,0,0,0,6.5
7,2020-02-17T00:06:00,1.4,南西,3,南南西,9.4,76.3,0,0,0,6.5
8,2020-02-17T00:07:00,1.5,南西,3.2,南西,9,79.7,0,0,0,6.5
9,2020-02-17T00:08:00,1.5,南西,3.2,南西,8.8,82.5,0,0,0,6.5
10,2020-02-17T00:09:00,1.4,南南西,3.2,南西,8.9,82.6,0,0,0,6.5
11,2020-02-17T00:10:00,1.4,南西,3.2,南西,9,82.2,0,0,0,6.5
12,2020-02-17T00:11:00,1.5,南西,3.2,南西,9,82.5,0,0,0,6.5
13,2020-02-17T00:12:00,1.8,南西,3.5,南南西,9.2,80.5,0,0,0,6.5
14,2020-02-17T00:13:00,2,南西,3.8,南南西,9.4,77.1,0,0,0,6.5
15,2020-02-17T00:14:00,2.1,南西,3.9,南南西,9.5,74.5,0,0,0,6.5
16,2020-02-17T00:15:00,2.2,南南西,5,南,9.7,71.3,0,0,0,6.5
17,2020-02-17T00:16:00,2.3,南南西,5,南,9.7,71,0,0,0,6.5
18,2020-02-17T00:17:00,2.6,南南西,6.2,南西,9.8,69.2,0,0,0,6.5
19,2020-02-17T00:18:00,2.8,南西,6.2,南西,10,64.8,0,0,0,6.5
20,2020-02-17T00:19:00,2.9,南西,6.2,南西,10.2,62.1,0,0,0,6.5
21,2020-02-17T00:20:00,3,南西,6.2,南西,10.2,62,0,0,0,6.5
22,2020-02-17T00:21:00,3.1,南西,6.2,南西,10.2,61.9,0,0,0,6.5
23,2020-02-17T00:22:00,3.1,南西,6.2,南西,10.1,62.5,0,0,0,6.5
24,2020-02-17T00:23:00,3,南西,6.2,南西,10,63,0,0,0,6.5
25,2020-02-17T00:24:00,3.2,南西,7.5,西南西,9.9,64.2,0,0,0,6.5
26,2020-02-17T00:25:00,3.3,南西,7.5,西南西,10.1,60.5,0,0,0,6.5
27,2020-02-17T00:26:00,3.4,西南西,7.5,西南西,10.1,60.2,0,0,0,6.5
28,2020-02-17T00:27:00,3.3,西南西,7.5,西南西,10,61.3,0,0,0,6.5
29,2020-02-17T00:28:00,3.1,南西,7.5,西南西,9.7,65.5,0,0,0,6.5
30,2020-02-17T00:29:00,3.1,南西,7.5,西南西,9.5,68,0,0,0,6.5
31,2020-02-17T00:30:00,3,南西,7.5,西南西,9.4,67.4,0,0,0,6.5
32,2020-02-17T00:31:00,2.9,南西,7.5,西南西,9.6,64.5,0,0,0,6.5
33,2020-02-17T00:32:00,2.9,南西,7.5,西南西,9.6,65.6,0,0,0,6.5
34,2020-02-17T00:33:00,3,南西,7.5,西南西,9.6,63.8,0,0,0,6.5
35,2020-02-17T00:34:00,3,南西,5.9,西南西,9.7,63,0,0,0,6.5
36,2020-02-17T00:35:00,2.9,南西,5.6,西,9.7,61.7,0,0,0,6.5
37,2020-02-17T00:36:00,2.8,南西,5.6,西,9.6,64.2,0,0,0,6.5
38,2020-02-17T00:37:00,2.9,南西,6.7,西,9.5,65.5,0,0,0,6.5
39,2020-02-17T00:38:00,3.1,南西,7.1,南西,9.6,60.1,0,0,0,6.5
40,2020-02-17T00:39:00,3.5,西南西,9.4,西南西,9.6,58.9,0,0,0,6.5
41,2020-02-17T00:40:00,3.8,西南西,9.4,西南西,9.6,58.2,0,0,0,6.5
42,2020-02-17T00:41:00,4,西南西,9.4,西南西,9.5,58.4,0,0,0,6.5
43,2020-02-17T00:42:00,4.2,西南西,9.4,西南西,9.4,58.6,0,0,0,6.5
44,2020-02-17T00:43:00,4.4,西南西,9.4,西南西,9.5,57.9,0,0,0,6.5
45,2020-02-17T00:44:00,4.5,西南西,9.4,西南西,9.4,58.7,0,0,0,6.5
46,2020-02-17T00:45:00,4.6,西南西,9.4,西南西,9.4,59,0,0,0,6.5
47,2020-02-17T00:46:00,4.8,西南西,9.4,西南西,9.5,58.8,0,0,0,6.5
48,2020-02-17T00:47:00,4.7,西南西,9.4,西南西,9.4,59.2,0,0,0,6.5
49,2020-02-17T00:48:00,4.7,西南西,9.4,西南西,9.3,60.7,0,0,0,6.5
50,2020-02-17T00:49:00,4.7,西南西,7.9,西南西,9.3,58.8,0,0,0,6.5
51,2020-02-17T00:50:00,4.7,西南西,8.5,西南西,9.3,58.6,0,0,0,6.5
52,2020-02-17T00:51:00,4.9,西南西,8.8,西南西,9.3,57.3,0,0,0,6.5
53,2020-02-17T00:52:00,4.9,西南西,8.8,西南西,9.3,57.3,0,0,0,6.5
54,2020-02-17T00:53:00,5,西南西,8.8,西南西,9.3,57.2,0,0,0,6.5
55,2020-02-17T00:54:00,5.2,西南西,9.1,南西,9.2,56.4,0,0,0,6.5
56,2020-02-17T00:55:00,5.3,西南西,9.1,南西,9.1,56.9,0,0,0,6.5
57,2020-02-17T00:56:00,5.5,西南西,9.1,南西,9.1,56.3,0,0,0,6.5
58,2020-02-17T00:57:00,5.8,西南西,9.1,南西,9.1,54.8,0,0,0,6.5
59,2020-02-17T00:58:00,5.9,西南西,9.1,南西,9.1,54.5,0,0,0,6.5
60,2020-02-17T00:59:00,5.9,西南西,9.6,南西,9,54.5,0,0,0,6.5
61,2020-02-17T01:00:00,6,西南西,9.6,南西,9.1,54.3,0,0,0,6.5
62,2020-02-17T01:01:00,5.9,西南西,9.6,南西,9.1,53.6,0,0,0,6.5
63,2020-02-17T01:02:00,5.9,西南西,9.6,南西,9,54.9,0,0,0,6.5
64,2020-02-17T01:03:00,5.8,西南西,9.6,南西,9,55.1,0,0,0,6.5
65,2020-02-17T01:04:00,5.6,西南西,9.6,南西,9,55.4,0,0,0,6.5
66,2020-02-17T01:05:00,5.5,西南西,9.6,南西,9,55.7,0,0,0,6.5
67,2020-02-17T01:06:00,5.2,西南西,9.6,南西,8.9,56,0,0,0,6.5
68,2020-02-17T01:07:00,4.9,西南西,9.6,南西,8.8,58,0,0,0,6.5
69,2020-02-17T01:08:00,4.6,西南西,9.6,南西,8.8,58.3,0,0,0,6.5
70,2020-02-17T01:09:00,4.3,西,9.5,西南西,8.7,58.8,0,0,0,6.5
71,2020-02-17T01:10:00,3.9,西,6.7,西,8.7,58.5,0,0,0,6.5
72,2020-02-17T01:11:00,3.9,西,6.7,西,8.7,57.8,0,0,0,6.5
73,2020-02-17T01:12:00,3.8,西,6.7,西,8.7,58.7,0,0,0,6.5
74,2020-02-17T01:13:00,3.6,西,6.5,西,8.7,57.3,0,0,0,6.5
75,2020-02-17T01:14:00,3.3,西,5.7,西,8.7,57.7,0,0,0,6.5
76,2020-02-17T01:15:00,3,西,5.3,西,8.6,59.5,0,0,0,6.5
77,2020-02-17T01:16:00,2.9,西,5.1,西,8.6,57.9,0,0,0,6.5
78,2020-02-17T01:17:00,2.8,西,5.1,西,8.6,57.3,0,0,0,6.5
79,2020-02-17T01:18:00,2.8,西,5.1,西,8.6,58.4,0,0,0,6.5
80,2020-02-17T01:19:00,2.9,西,5.1,西,8.5,58.9,0,0,0,6.5
81,2020-02-17T01:20:00,3,西,5.6,西南西,8.6,58.4,0,0,0,6.5
82,2020-02-17T01:21:00,2.9,西,5.6,西南西,8.6,58.5,0,0,0,6.5
83,2020-02-17T01:22:00,2.7,西,5.6,西南西,8.5,59.6,0,0,0,6.5
84,2020-02-17T01:23:00,2.7,西,5.6,西南西,8.5,60.5,0,0,0,6.5
85,2020-02-17T01:24:00,2.9,西,5.6,西南西,8.4,60,0,0,0,6.5
86,2020-02-17T01:25:00,2.9,西,6,南西,8.4,60.3,0,0,0,6.5
87,2020-02-17T01:26:00,3,西南西,6,南西,8.5,59.2,0,0,0,6.5
88,2020-02-17T01:27:00,3,西南西,6,南西,8.5,59.3,0,0,0,6.5
89,2020-02-17T01:28:00,3.1,西南西,6,南西,8.5,58.7,0,0,0,6.5
90,2020-02-17T01:29:00,3.1,西南西,6,南西,8.5,58.6,0,0,0,6.5
91,2020-02-17T01:30:00,2.8,西南西,6,南西,8.5,58.2,0,0,0,6.5
92,2020-02-17T01:31:00,2.8,西南西,6,南西,8.5,58.5,0,0,0,6.5
93,2020-02-17T01:32:00,2.8,西南西,6,南西,8.4,59.1,0,0,0,6.5
94,2020-02-17T01:33:00,2.8,西南西,6,南西,8.4,59.2,0,0,0,6.5
95,2020-02-17T01:34:00,2.9,西南西,6.2,西南西,8.4,57.7,0,0,0,6.5
96,2020-02-17T01:35:00,2.9,西南西,6.2,西南西,8.4,57.9,0,0,0,6.5
97,2020-02-17T01:36:00,3,西南西,6.2,西南西,8.3,59.1,0,0,0,6.5
98,2020-02-17T01:37:00,3,西南西,6.2,西南西,8.4,57.8,0,0,0,6.5
99,2020-02-17T01:38:00,3,西南西,6.2,西南西,8.3,58.3,0,0,0,6.5
100,2020-02-17T01:39:00,3,西南西,6.2,西南西,8.3,58.7,0,0,0,6.5
101,2020-02-17T01:40:00,3,西南西,6.2,西南西,8.3,59.2,0,0,0,6.5
102,2020-02-17T01:41:00,3.2,西南西,7.4,西南西,8.2,59.3,0,0,0,6.5
103,2020-02-17T01:42:00,3.3,西南西,7.4,西南西,8.3,56.1,0,0,0,6.5
104,2020-02-17T01:43:00,3.2,西南西,7.4,西南西,8.3,56.4,0,0,0,6.5
105,2020-02-17T01:44:00,3.1,西南西,7.4,西南西,8.2,58.4,0,0,0,6.5
106,2020-02-17T01:45:00,3.3,西南西,7.4,西南西,8.2,57.7,0,0,0,6.5
107,2020-02-17T01:46:00,3.3,西南西,7.4,西南西,8.2,57.1,0,0,0,6.5
108,2020-02-17T01:47:00,3.3,西南西,7.4,西南西,8.2,58.2,0,0,0,6.5
109,2020-02-17T01:48:00,3.3,西南西,7.4,西南西,8.1,59.3,0,0,0,6.5
110,2020-02-17T01:49:00,3.3,西,7.4,西南西,8,59.8,0,0,0,6.5
111,2020-02-17T01:50:00,3.3,西,7.4,西南西,8,60.5,0,0,0,6.5
112,2020-02-17T01:51:00,3.1,西,7,西,8,60.5,0,0,0,6.5
113,2020-02-17T01:52:00,2.9,西,7,西,7.9,60.5,0,0,0,6.5
114,2020-02-17T01:53:00,3,西,7,西,7.9,61.1,0,0,0,6.5
115,2020-02-17T01:54:00,3.1,西,7,西,7.9,60.4,0,0,0,6.5
116,2020-02-17T01:55:00,2.9,西,5.4,西,7.9,60.9,0,0,0,6.5
117,2020-02-17T01:56:00,2.8,西北西,5.4,西,7.9,60.5,0,0,0,6.5
118,2020-02-17T01:57:00,2.9,西北西,5.7,北西,7.9,59.2,0,0,0,6.5
119,2020-02-17T01:58:00,3.1,西北西,6.4,北西,7.9,58.2,0,0,0,6.5
120,2020-02-17T01:59:00,3.3,西北西,6.4,北西,7.9,58.2,0,0,0,6.5
121,2020-02-17T02:00:00,3.5,西北西,6.4,北西,7.9,58.4,0,0,0,6.5
122,2020-02-17T02:01:00,3.5,西北西,6.4,北西,7.9,59.1,0,0,0,6.5
123,2020-02-17T02:02:00,3.8,西北西,6.4,北西,7.8,59.3,0,0,0,6.5
124,2020-02-17T02:03:00,3.8,北西,6.4,北西,7.8,60.4,0,0,0,6.5
125,2020-02-17T02:04:00,3.9,北西,6.4,北西,7.8,61.3,0,0,0,6.5
126,2020-02-17T02:05:00,3.9,北西,6.4,北西,7.7,62.5,0,0,0,6.5
127,2020-02-17T02:06:00,4,北西,6.4,北西,7.7,61.1,0,0,0,6.5
128,2020-02-17T02:07:00,3.9,北西,6.4,北西,7.7,60.6,0,0,0,6.5
129,2020-02-17T02:08:00,3.9,北西,5.9,西北西,7.6,61.7,0,0,0,6.5
130,2020-02-17T02:09:00,3.7,北西,5.6,西北西,7.7,60,0,0,0,6.5
131,2020-02-17T02:10:00,3.5,北西,5.6,北北西,7.5,63.4,0,0,0,6.5
132,2020-02-17T02:11:00,3.6,北西,5.6,北北西,7.5,63.6,0,0,0,6.5
133,2020-02-17T02:12:00,3.6,北西,5.8,北北西,7.4,64.1,0,0,0,6.5
134,2020-02-17T02:13:00,3.6,北北西,5.8,北北西,7.3,65.9,0,0,0,6.5
135,2020-02-17T02:14:00,3.5,北北西,5.8,北北西,7.1,67.4,0,0,0,6.5
136,2020-02-17T02:15:00,3.5,北北西,6.4,北北西,6.9,70.3,0,0,0,6.5
137,2020-02-17T02:16:00,3.6,北北西,6.8,北北東,6.8,72,0,0,0,6.5
138,2020-02-17T02:17:00,3.7,北北西,7.6,北,6.7,73.4,0,0,0,6.5
139,2020-02-17T02:18:00,3.8,北北西,7.6,北,6.5,74.5,0,0,0,6.5
140,2020-02-17T02:19:00,3.9,北,7.6,北,6.5,75.6,0,0,0,6.5
141,2020-02-17T02:20:00,4.1,北,8.3,北,6.5,76.8,0,0,0,6.5
142,2020-02-17T02:21:00,4.2,北,8.3,北,6.4,76.9,0,0,0,6.5
143,2020-02-17T02:22:00,4.3,北,8.3,北,6.3,77.7,0,0,0,6.5
144,2020-02-17T02:23:00,4.5,北,8.6,北,6.2,77.5,0,0,0,6.5
145,2020-02-17T02:24:00,4.7,北,8.8,北,6.2,77.7,0,0,0,6.5
146,2020-02-17T02:25:00,5,北,9.5,北北西,6.1,77.8,0,0,0,6.5
147,2020-02-17T02:26:00,5,北,9.5,北北西,6.1,77.9,0,0,0,6.5
148,2020-02-17T02:27:00,4.9,北,9.5,北北西,6.1,78.3,0,0,0,6.5
149,2020-02-17T02:28:00,4.8,北,9.5,北北西,6,79.1,0,0,0,6.5
150,2020-02-17T02:29:00,5,北,9.5,北北西,6,79,0,0,0,6.5
151,2020-02-17T02:30:00,5,北,9.5,北北西,5.9,78,0,0,0,6.5
152,2020-02-17T02:31:00,4.9,北,9.5,北北西,5.9,78.7,0,0,0,6.5
153,2020-02-17T02:32:00,4.8,北,9.5,北北西,5.9,78.9,0,0,0,6.5
154,2020-02-17T02:33:00,4.7,北,9.5,北北西,5.8,79.5,0,0,0,6.5
155,2020-02-17T02:34:00,4.6,北,9.5,北北西,5.8,79.6,0,0,0,6.5
156,2020-02-17T02:35:00,4.6,北,9.2,北,5.7,79,0,0,0,6.5
157,2020-02-17T02:36:00,4.6,北,9.2,北,5.6,78.7,0,0,0,6.5
158,2020-02-17T02:37:00,4.9,北,9.3,北北西,5.7,79.6,0,0,0,6.5
159,2020-02-17T02:38:00,5,北,9.3,北北西,5.6,79.5,0,0,0,6.5
160,2020-02-17T02:39:00,5,北,9.3,北北西,5.6,79.6,0,0,0,6.5
161,2020-02-17T02:40:00,4.9,北,9.3,北北西,5.6,79.6,0,0,0,6.5
162,2020-02-17T02:41:00,5.2,北,10,北北西,5.5,79.6,0,0,0,6.5
163,2020-02-17T02:42:00,5.3,北,10,北北西,5.5,79.7,0,0,0,6.5
164,2020-02-17T02:43:00,5.5,北,10,北北西,5.5,79.9,0,0,0,6.5
165,2020-02-17T02:44:00,5.5,北,10,北北西,5.5,80.3,0,0,0,6.5
166,2020-02-17T02:45:00,5.6,北,10,北北西,5.5,80.4,0,0,0,6.5
167,2020-02-17T02:46:00,5.7,北,10,北北西,5.4,80.5,0,0,0,6.5
168,2020-02-17T02:47:00,5.6,北,10,北北西,5.4,80.8,0,0,0,6.5
169,2020-02-17T02:48:00,5.6,北,10,北北西,5.4,80.8,0,0,0,6.5
170,2020-02-17T02:49:00,5.4,北,10,北北西,5.4,81.3,0,0,0,6.5
171,2020-02-17T02:50:00,5.4,北,10,北北西,5.3,81.8,0,0,0,6.5
172,2020-02-17T02:51:00,5.3,北,9.2,北,5.3,81.1,0,0,0,6.5
173,2020-02-17T02:52:00,5.2,北,9.2,北,5.3,81,0,0,0,6.5
174,2020-02-17T02:53:00,5,北,8.9,北北西,5.2,81.7,0,0,0,6.5
175,2020-02-17T02:54:00,4.9,北,8.8,北,5.3,82.5,0,0,0,6.5
176,2020-02-17T02:55:00,4.7,北,8.7,北,5.2,82.7,0,0,0,6.5
177,2020-02-17T02:56:00,4.6,北,8.7,北,5.2,83.2,0,0,0,6.5
178,2020-02-17T02:57:00,4.5,北,8.2,北,5.2,83.3,0,0,0,6.5
179,2020-02-17T02:58:00,4.3,北,8.2,北,5.2,82.8,0,0,0,6.5
180,2020-02-17T02:59:00,4.4,北,8.2,北,5.2,82.6,0,0,0,6.5
181,2020-02-17T03:00:00,4.4,北,8.2,北,5.2,83.2,0,0,0,6.5
182,2020-02-17T03:01:00,4.3,北,7.3,北北西,5.1,83.4,0,0,0,6.5
183,2020-02-17T03:02:00,4.4,北,7.2,北,5.1,83.5,0,0,0,6.5
184,2020-02-17T03:03:00,4.3,北,7.2,北,5.1,83.5,0,0,0,6.5
185,2020-02-17T03:04:00,4.3,北,7.2,北,5.1,83.6,0,0,0,6.5
186,2020-02-17T03:05:00,4.4,北,7.2,北,5.1,83.6,0,0,0,6.5
187,2020-02-17T03:06:00,4.3,北,7,北,5.1,83.6,0,0,0,6.5
188,2020-02-17T03:07:00,4.3,北,7,北,5.1,83.4,0,0,0,6.5
189,2020-02-17T03:08:00,4.3,北,6.9,北北西,5.1,83.2,0,0,0,6.5
190,2020-02-17T03:09:00,4.3,北,7.8,北,5,83.2,0,0,0,6.5
191,2020-02-17T03:10:00,4.3,北,7.8,北,5.1,83,0,0,0,6.5
192,2020-02-17T03:11:00,4.2,北,7.8,北,5.2,83.4,0,0,0,6.5
193,2020-02-17T03:12:00,4.1,北,7.8,北,5.2,83.3,0,0,0,6.5
194,2020-02-17T03:13:00,4.1,北,7.8,北,5.1,83,0,0,0,6.5
195,2020-02-17T03:14:00,4.2,北,7.8,北,5,83,0,0,0,6.5
196,2020-02-17T03:15:00,4,北,7.8,北,5,83.2,0,0,0,6.5
197,2020-02-17T03:16:00,3.9,北,7.8,北,5,83.7,0,0,0,6.5
198,2020-02-17T03:17:00,3.9,北,7.8,北,4.9,83.3,0,0,0,6.5
199,2020-02-17T03:18:00,3.8,北,7.8,北,4.9,83.5,0,0,0,6.5
200,2020-02-17T03:19:00,3.6,北,7.2,北,4.9,83.8,0,0,0,6.5
201,2020-02-17T03:20:00,3.5,北,7.2,北,4.9,83.9,0,0,0,6.5
202,2020-02-17T03:21:00,3.5,北,7.2,北,5,83.9,0,0,0,6.5
203,2020-02-17T03:22:00,3.5,北,7.2,北,5,83.8,0,0,0,6.5
204,2020-02-17T03:23:00,3.6,北,7.2,北,5,83.5,0,0,0,6.5
205,2020-02-17T03:24:00,3.5,北,7,北,5.1,83.2,0,0,0,6.5
206,2020-02-17T03:25:00,3.6,北,7,北,5.1,83.2,0,0,0,6.5
207,2020-02-17T03:26:00,3.7,北,7,北,5.1,82.9,0,0,0,6.5
208,2020-02-17T03:27:00,3.8,北,7,北,5.1,82.5,0,0,0,6.5
209,2020-02-17T03:28:00,3.9,北,7,北,5.2,82.2,0,0,0,6.5
210,2020-02-17T03:29:00,3.9,北,7,北,5.2,81.7,0,0,0,6.5
211,2020-02-17T03:30:00,3.9,北,7,北,5.1,82,0,0,0,6.5
212,2020-02-17T03:31:00,3.8,北,6.3,北,5,82.6,0,0,0,6.5
213,2020-02-17T03:32:00,3.8,北,6.3,北,5,83,0,0,0,6.5
214,2020-02-17T03:33:00,3.7,北,6.3,北,4.9,83.1,0,0,0,6.5
215,2020-02-17T03:34:00,3.7,北,6.9,北,5,83.2,0,0,0,6.5
216,2020-02-17T03:35:00,3.7,北,6.9,北,5,83.3,0,0,0,6.5
217,2020-02-17T03:36:00,3.7,北,6.9,北,4.9,83.1,0,0,0,6.5
218,2020-02-17T03:37:00,3.6,北,6.9,北,4.9,83.4,0,0,0,6.5
219,2020-02-17T03:38:00,3.6,北,6.9,北,4.9,83.8,0,0,0,6.5
220,2020-02-17T03:39:00,3.6,北,6.9,北,4.9,83.4,0,0,0,6.5
221,2020-02-17T03:40:00,3.6,北,6.9,北,4.9,83.3,0,0,0,6.5
222,2020-02-17T03:41:00,3.7,北,6.9,北,4.9,83.7,0,0,0,6.5
223,2020-02-17T03:42:00,3.6,北,6.9,北,4.9,83.3,0,0,0,6.5
224,2020-02-17T03:43:00,3.5,北,6.9,北,4.8,83.5,0,0,0,6.5
225,2020-02-17T03:44:00,3.6,北,6.6,北北西,4.8,83.8,0,0,0,6.5
226,2020-02-17T03:45:00,3.5,北,6.6,北北西,4.8,83.6,0,0,0,6.5
227,2020-02-17T03:46:00,3.4,北,6.6,北北西,4.8,83.5,0,0,0,6.5
228,2020-02-17T03:47:00,3.4,北,6.6,北北西,4.7,83.9,0,0,0,6.5
229,2020-02-17T03:48:00,3.2,北,6.6,北北西,4.8,84,0,0,0,6.5
230,2020-02-17T03:49:00,3.1,北,6.6,北北西,4.7,83.8,0,0,0,6.5
231,2020-02-17T03:50:00,3.1,北,6.6,北北西,4.6,83.7,0,0,0,6.5
232,2020-02-17T03:51:00,2.9,北,6.6,北北西,4.6,83.9,0,0,0,6.5
233,2020-02-17T03:52:00,2.8,北,6.6,北北西,4.6,84.1,0,0,0,6.5
234,2020-02-17T03:53:00,2.7,北,6.6,北北西,4.6,84.4,0,0,0,6.5
235,2020-02-17T03:54:00,2.5,北,5.7,北,4.6,84.8,0,0,0,6.5
236,2020-02-17T03:55:00,2.4,北,5.7,北,4.6,85.3,0,0,0,6.5
237,2020-02-17T03:56:00,2.3,北,5.7,北,4.6,85.3,0,0,0,6.5
238,2020-02-17T03:57:00,2.1,北,5.7,北,4.6,85.2,0,0,0,6.5
239,2020-02-17T03:58:00,2.1,北,5.7,北,4.6,84.8,0,0,0,6.5
240,2020-02-17T03:59:00,2.2,北,5.7,北,4.6,84.2,0,0,0,6.5
241,2020-02-17T04:00:00,2.3,北北東,5.5,北東,4.6,83.8,0,0,0,6.5
242,2020-02-17T04:01:00,2.3,北北東,5.5,北東,4.6,83.8,0,0,0,6.5
243,2020-02-17T04:02:00,2.2,北北東,5.5,北東,4.5,83.8,0,0,0,6.5
244,2020-02-17T04:03:00,2.3,北北東,5.6,北北東,4.5,84,0,0,0,6.5
245,2020-02-17T04:04:00,2.5,北北東,5.6,北北東,4.6,84.4,0,0,0,6.5
246,2020-02-17T04:05:00,2.4,北北東,5.6,北北東,4.5,84,0,0,0,6.5
247,2020-02-17T04:06:00,2.5,北北東,5.8,北東,4.5,83.5,0,0,0,6.5
248,2020-02-17T04:07:00,2.7,北北東,5.8,北東,4.5,83.5,0,0,0,6.5
249,2020-02-17T04:08:00,2.6,北北東,5.8,北東,4.5,83,0,0,0,6.5
250,2020-02-17T04:09:00,2.5,北北東,5.8,北東,4.5,83,0,0,0,6.5
251,2020-02-17T04:10:00,2.5,北北東,5.8,北東,4.5,82.6,0,0,0,6.5
252,2020-02-17T04:11:00,2.5,北北東,5.8,北東,4.5,82.1,0,0,0,6.5
253,2020-02-17T04:12:00,2.6,北北東,5.8,北東,4.5,82.3,0,0,0,6.5
254,2020-02-17T04:13:00,2.6,北北東,5.8,北東,4.5,82.4,0,0,0,6.5
255,2020-02-17T04:14:00,2.5,北東,5.8,北東,4.5,82.6,0,0,0,6.5
256,2020-02-17T04:15:00,2.5,北東,5.8,北東,4.5,82.7,0,0,0,6.5
257,2020-02-17T04:16:00,2.5,北東,5.7,北北東,4.5,82.7,0,0,0,6.5
258,2020-02-17T04:17:00,2.5,北東,5.5,北東,4.5,82.8,0,0,0,6.5
259,2020-02-17T04:18:00,2.5,北東,5.5,北東,4.5,82.9,0,0,0,6.5
260,2020-02-17T04:19:00,2.6,北東,5.5,北東,4.5,83.3,0,0,0,6.5
261,2020-02-17T04:20:00,2.5,北東,5.5,北東,4.5,83.4,0,0,0,6.5
262,2020-02-17T04:21:00,2.4,北北東,5.5,北東,4.5,83.4,0,0,0,6.5
263,2020-02-17T04:22:00,2.3,北北東,5.5,北東,4.5,83,0,0,0,6.5
264,2020-02-17T04:23:00,2.1,北北東,5.5,北東,4.6,83.3,0,0,0,6.5
265,2020-02-17T04:24:00,2,北北東,5.5,北東,4.5,83.6,0,0,0,6.5
266,2020-02-17T04:25:00,1.9,北北東,5.5,北東,4.5,83.5,0,0,0,6.5
267,2020-02-17T04:26:00,1.9,北北東,5.5,北東,4.6,83.4,0,0,0,6.5
268,2020-02-17T04:27:00,1.7,北,4.2,北東,4.6,83.6,0,0,0,6.5
269,2020-02-17T04:28:00,1.7,北,3.5,北,4.6,84,0,0,0,6.5
270,2020-02-17T04:29:00,1.7,北,3.5,北,4.6,84.1,0,0,0,6.5
271,2020-02-17T04:30:00,1.6,北,3.5,北,4.6,83.9,0,0,0,6.5
272,2020-02-17T04:31:00,1.5,北,3.5,北,4.6,84,0,0,0,6.5
273,2020-02-17T04:32:00,1.5,北北東,3.5,北,4.6,83.7,0,0,0,6.5
274,2020-02-17T04:33:00,1.6,北北東,3.5,北,4.6,83.9,0,0,0,6.5
275,2020-02-17T04:34:00,1.6,北北東,3.5,北,4.6,84.5,0,0,0,6.5
276,2020-02-17T04:35:00,1.5,北,3.4,北北西,4.7,84.3,0,0,0,6.5
277,2020-02-17T04:36:00,1.5,北,3.4,北北西,4.8,83.4,0,0,0,6.5
278,2020-02-17T04:37:00,1.4,北北東,3.4,北北西,4.7,82.5,0,0,0,6.5
279,2020-02-17T04:38:00,1.4,北北東,3.4,北北西,4.7,82.7,0,0,0,6.5
280,2020-02-17T04:39:00,1.3,北北東,3.2,北東,4.8,82.4,0,0,0,6.5
281,2020-02-17T04:40:00,1.3,北北東,3.2,北東,4.7,82.5,0,0,0,6.5
282,2020-02-17T04:41:00,1.5,北北東,4,北北東,4.7,82.9,0,0,0,6.5
283,2020-02-17T04:42:00,1.5,北北東,4,北北東,4.7,82.4,0,0,0,6.5
284,2020-02-17T04:43:00,1.5,北北東,4,北北東,4.7,82,0,0,0,6.5
285,2020-02-17T04:44:00,1.6,北北東,4,北北東,4.7,82,0,0,0,6.5
286,2020-02-17T04:45:00,1.7,北北東,4,北北東,4.7,81.9,0,0,0,6.5
287,2020-02-17T04:46:00,1.7,北北東,4,北北東,4.7,81.5,0,0,0,6.5
288,2020-02-17T04:47:00,1.7,北北東,4,北北東,4.7,81.9,0,0,0,6.5
289,2020-02-17T04:48:00,1.7,北北東,4,北北東,4.8,82,0,0,0,6.5
290,2020-02-17T04:49:00,1.7,北北東,4,北北東,4.8,81.4,0,0,0,6.5
291,2020-02-17T04:50:00,1.6,北北東,4,北北東,4.8,80.9,0,0,0,6.5
292,2020-02-17T04:51:00,1.5,北北東,3.7,北北東,4.9,81,0,0,0,6.5
293,2020-02-17T04:52:00,1.6,北北東,4.5,北北東,4.8,80.8,0,0,0,6.5
294,2020-02-17T04:53:00,1.8,北北東,5,北北東,4.7,81,0,0,0,6.5
295,2020-02-17T04:54:00,1.9,北北東,5,北北東,4.9,80.8,0,0,0,6.5
296,2020-02-17T04:55:00,1.8,北北東,5,北北東,4.8,80.2,0,0,0,6.5
297,2020-02-17T04:56:00,1.8,北北東,5,北北東,4.8,80.5,0,0,0,6.5
298,2020-02-17T04:57:00,1.9,北北東,5,北北東,4.8,81.1,0,0,0,6.5
299,2020-02-17T04:58:00,1.9,北北東,5,北北東,4.8,81.1,0,0,0,6.5
300,2020-02-17T04:59:00,1.9,北北東,5,北北東,4.8,81.2,0,0,0,6.5
301,2020-02-17T05:00:00,1.9,北北東,5,北北東,4.8,81.7,0,0,0,6.5
302,2020-02-17T05:01:00,1.9,北北東,5,北北東,4.8,81.2,0,0,0,6.5
303,2020-02-17T05:02:00,1.9,北北東,5,北北東,4.8,81.4,0,0,0,6.5
304,2020-02-17T05:03:00,1.7,北北東,4.7,北北東,4.9,80.3,0,0,0,6.5
305,2020-02-17T05:04:00,1.6,北北東,3.6,北,5,78.8,0,0,0,6.5
306,2020-02-17T05:05:00,1.6,北北東,3.6,北,4.9,79.3,0,0,0,6.5
307,2020-02-17T05:06:00,1.5,北,3.6,北,4.8,80,0,0,0,6.5
308,2020-02-17T05:07:00,1.3,北,3.4,北北東,4.7,81.2,0,0,0,6.5
309,2020-02-17T05:08:00,1.2,北,3.4,北北東,4.7,82.1,0,0,0,6.5
310,2020-02-17T05:09:00,1.2,北,3.4,北北東,4.9,82.6,0,0,0,6.5
311,2020-02-17T05:10:00,1.1,北,3.1,北北東,5,80.6,0,0,0,6.5
312,2020-02-17T05:11:00,1,北,3.1,北北東,5.1,78.9,0,0,0,6.5
313,2020-02-17T05:12:00,0.9,北,2.4,北,5.1,78.3,0,0,0,6.5
314,2020-02-17T05:13:00,0.8,北北西,2.4,北,5,78,0,0,0,6.5
315,2020-02-17T05:14:00,0.7,北北西,2.4,北,5.1,77.9,0,0,0,6.5
316,2020-02-17T05:15:00,0.7,北北西,1.7,北北西,5.1,77,0,0,0,6.5
317,2020-02-17T05:16:00,0.8,北北西,2.7,北,5,78.3,0,0,0,6.5
318,2020-02-17T05:17:00,0.8,北北西,2.7,北,5,79.8,0,0,0,6.5
319,2020-02-17T05:18:00,0.9,北北西,2.7,北,4.9,80.5,0,0,0,6.5
320,2020-02-17T05:19:00,1,北北西,2.7,北,4.9,81.9,0,0,0,6.5
321,2020-02-17T05:20:00,1,北北西,2.7,北,4.9,82.3,0,0,0,6.5
322,2020-02-17T05:21:00,1,北北西,2.7,北,4.9,82,0,0,0,6.5
323,2020-02-17T05:22:00,1.1,北北西,2.7,北,5,80.8,0,0,0,6.5
324,2020-02-17T05:23:00,1,北,2.7,北,5,80.1,0,0,0,6.5
325,2020-02-17T05:24:00,0.9,北,2.7,北,5,79.9,0,0,0,6.5
326,2020-02-17T05:25:00,0.8,北,2.7,北,4.9,80.2,0,0,0,6.5
327,2020-02-17T05:26:00,0.7,北,2.5,北,4.9,80.3,0,0,0,6.5
328,2020-02-17T05:27:00,0.6,北,1.8,北北西,4.9,80.1,0,0,0,6.5
329,2020-02-17T05:28:00,0.5,北北西,1.8,北北西,4.9,80.8,0,0,0,6.5
330,2020-02-17T05:29:00,0.5,南,1.4,北北東,4.8,81.5,0,0,0,6.5
331,2020-02-17T05:30:00,0.4,南,1.4,北北東,4.8,82.4,0,0,0,6.5
332,2020-02-17T05:31:00,0.4,南南西,1,南南西,4.8,82.5,0,0,0,6.5
333,2020-02-17T05:32:00,0.3,南南西,1,南南西,4.8,82.7,0,0,0,6.5
334,2020-02-17T05:33:00,0.3,南南西,1,南南西,4.8,82.9,0,0,0,6.5
335,2020-02-17T05:34:00,0.3,南南西,1,南南西,4.9,83.1,0,0,0,6.5
336,2020-02-17T05:35:00,0.3,南南西,1,南南西,5,82.2,0,0,0,6.5
337,2020-02-17T05:36:00,0.3,南,1,南南西,5,81.1,0,0,0,6.5
338,2020-02-17T05:37:00,0.3,南南東,1,南南西,5.1,80.8,0,0,0,6.5
339,2020-02-17T05:38:00,0.3,東,1,南南西,5.1,80.3,0,0,0,6.5
340,2020-02-17T05:39:00,0.4,東北東,1,南南西,5.1,80.1,0,0,0,6.5
341,2020-02-17T05:40:00,0.3,東北東,0.9,南,5,79.8,0,0,0,6.5
342,2020-02-17T05:41:00,0.3,東北東,0.7,東北東,4.9,80.1,0,0,0,6.5
343,2020-02-17T05:42:00,0.3,東北東,0.7,東北東,4.9,80.2,0,0,0,6.5
344,2020-02-17T05:43:00,0.3,東北東,0.7,東北東,4.8,80.5,0,0,0,6.5
345,2020-02-17T05:44:00,0.2,静穏,0.7,東北東,4.8,81.5,0,0,0,6.5
346,2020-02-17T05:45:00,0.2,静穏,0.7,東北東,4.7,82.6,0,0,0,6.5
347,2020-02-17T05:46:00,0.2,静穏,0.7,東北東,4.7,83,0,0,0,6.5
348,2020-02-17T05:47:00,0.2,静穏,0.7,東北東,4.8,83.3,0,0,0,6.5
349,2020-02-17T05:48:00,0.2,静穏,0.8,北,4.7,82.5,0,0,0,6.5
350,2020-02-17T05:49:00,0.2,静穏,0.9,北北西,4.8,82.9,0,0,0,6.5
351,2020-02-17T05:50:00,0.3,北北西,0.9,北北西,4.8,83.2,0,0,0,6.5
352,2020-02-17T05:51:00,0.3,北北西,0.9,北北西,4.8,83.7,0,0,0,6.5
353,2020-02-17T05:52:00,0.3,北北西,0.9,北北西,4.7,84,0,0,0,6.5
354,2020-02-17T05:53:00,0.3,北北西,0.9,北北西,4.6,84.4,0,0,0,6.5
355,2020-02-17T05:54:00,0.3,北北西,0.9,北北西,4.5,84.8,0,0,0,6.5
356,2020-02-17T05:55:00,0.3,北北西,0.9,北北西,4.5,84.8,0,0,0,6.5
357,2020-02-17T05:56:00,0.3,北西,0.9,北北西,4.5,85,0,0,0,6.5
358,2020-02-17T05:57:00,0.3,西北西,0.9,北北西,4.6,85,0,0,0,6.5
359,2020-02-17T05:58:00,0.3,西北西,1.3,北北西,4.6,85.4,0,0,0,6.5
360,2020-02-17T05:59:00,0.4,西北西,1.4,北,4.5,85.3,0,0,0,6.5
361,2020-02-17T06:00:00,0.5,西北西,1.4,北,4.5,85.8,0,0,0,6.5
362,2020-02-17T06:01:00,0.5,西北西,1.4,北,4.4,86.3,0,0,0,6.5
363,2020-02-17T06:02:00,0.6,北西,1.4,北,4.4,86.9,0,0,0,6.5
364,2020-02-17T06:03:00,0.6,北西,1.4,北,4.5,87.3,0,0,0,6.5
365,2020-02-17T06:04:00,0.6,北北西,1.4,北,4.5,87.6,0,0,0,6.5
366,2020-02-17T06:05:00,0.7,北北西,1.4,北,4.5,87.3,0,0,0,6.5
367,2020-02-17T06:06:00,0.7,北,1.4,北,4.5,87.1,0,0,0,6.5
368,2020-02-17T06:07:00,0.7,北,1.4,北,4.6,87.6,0,0,0,6.5
369,2020-02-17T06:08:00,0.7,北,1.4,北,4.5,87.3,0,0,0,6.5
370,2020-02-17T06:09:00,0.6,北,1.4,北北西,4.4,87.2,0,0,0,6.5
371,2020-02-17T06:10:00,0.5,北,1.3,北,4.4,87.4,0,0,0,6.5
372,2020-02-17T06:11:00,0.4,北,1.2,北,4.4,87,0,0,0,6.5
373,2020-02-17T06:12:00,0.3,北,0.8,北,4.4,87.3,0,0,0,6.5
374,2020-02-17T06:13:00,0.3,北,0.8,北,4.4,87.6,0,0,0,6.5
375,2020-02-17T06:14:00,0.3,北北西,0.8,北,4.4,87.7,0,0,0,6.5
376,2020-02-17T06:15:00,0.3,北北西,0.8,北西,4.3,88,0,0,0,6.5
377,2020-02-17T06:16:00,0.3,北北西,0.8,北西,4.3,88,0,0,0,6.5
378,2020-02-17T06:17:00,0.3,北北西,0.8,北西,4.3,88.5,0,0,0,6.5
379,2020-02-17T06:18:00,0.3,北北西,0.8,北西,4.4,89.1,0,0,0,6.5
380,2020-02-17T06:19:00,0.3,北北西,0.8,北西,4.4,89.4,0,0,0,6.5
381,2020-02-17T06:20:00,0.4,北北西,0.9,北,4.3,88.7,0,0,0,6.5
382,2020-02-17T06:21:00,0.5,北北西,1.7,北北東,4.3,88.7,0,0,0,6.5
383,2020-02-17T06:22:00,0.6,北北西,1.8,北東,4.3,89.4,0,0,0,6.5
384,2020-02-17T06:23:00,0.7,北,1.8,北東,4.3,89.1,0,0,0,6.5
385,2020-02-17T06:24:00,0.7,北,1.8,北東,4.2,88.8,0,0,0,6.5
386,2020-02-17T06:25:00,0.8,北,2.1,北,4.3,89.1,0,0,0,6.5
387,2020-02-17T06:26:00,0.9,北,2.1,北,4.2,89.2,0,0,0,6.5
388,2020-02-17T06:27:00,1,北,2.1,北,4.2,89.1,0,0,0,6.5
389,2020-02-17T06:28:00,1,北,2.1,北,4.1,88.8,0,0,0,6.5
390,2020-02-17T06:29:00,1.1,北,2.1,北,4,88.4,0,0,0,6.5
391,2020-02-17T06:30:00,1,北,2.1,北,4,88.7,0,0,0,6.5
392,2020-02-17T06:31:00,0.9,北,2.1,北,4.1,89.3,0,0,0,6.5
393,2020-02-17T06:32:00,0.9,北,2.1,北,4.1,89.7,0,0,0,6.5
394,2020-02-17T06:33:00,0.9,北,2.1,北,4.1,89.5,0,0,0,6.5
395,2020-02-17T06:34:00,0.8,北,2.1,北,4,89.4,0,0,0,6.5
396,2020-02-17T06:35:00,0.6,北北西,1.8,北北西,4,89.6,0,0,0,6.5
397,2020-02-17T06:36:00,0.5,北西,1.6,北,4,89.8,0,0,0,6.5
398,2020-02-17T06:37:00,0.6,北西,1.6,北,4,90,0,0,0,6.5
399,2020-02-17T06:38:00,0.6,西北西,1.5,北西,4,90,0,0,0,6.5
400,2020-02-17T06:39:00,0.7,西北西,1.8,北北西,3.9,90,0,0,0,6.5
401,2020-02-17T06:40:00,0.7,北西,1.8,北北西,4,90.1,0,0,0,6.5
402,2020-02-17T06:41:00,0.9,北西,1.8,北北西,4.1,90.3,0,0,0,6.5
403,2020-02-17T06:42:00,0.9,北北西,1.8,北北西,4.1,90.6,0,0,0,6.5
404,2020-02-17T06:43:00,0.9,北西,1.8,北北西,4.1,90.4,0,0,0,6.5
405,2020-02-17T06:44:00,0.9,北西,1.8,北北西,4.1,90.3,0,0,0,6.5
406,2020-02-17T06:45:00,0.9,北北西,1.8,北北西,4.1,90.3,0,0,0,6.5
407,2020-02-17T06:46:00,0.9,北北西,1.8,北北西,4.1,90.5,0,0,0,6.5
408,2020-02-17T06:47:00,0.9,北,2.1,北北西,3.9,90.2,0,0,0,6.5
409,2020-02-17T06:48:00,1,北,2.4,北北西,3.9,90.2,0,0,0,6.5
410,2020-02-17T06:49:00,1,北,2.4,北北西,3.9,90.5,0,0,0,6.5
411,2020-02-17T06:50:00,1,北,2.4,北北西,4,91.2,0,0,0,6.5
412,2020-02-17T06:51:00,1,北,2.4,北北西,4,91.6,0,0,0,6.5
413,2020-02-17T06:52:00,1.1,北,2.4,北北西,4,91.5,0,0,0,6.5
414,2020-02-17T06:53:00,1.1,北北東,2.4,北北西,4.1,91.4,0,0,0,6.5
415,2020-02-17T06:54:00,1.1,北,2.4,北北西,4.1,91.5,0,0,0,6.5
416,2020-02-17T06:55:00,1.2,北,2.4,北北西,4,91.3,0,0,0,6.5
417,2020-02-17T06:56:00,1.2,北,2.4,北北西,4,91.1,0,0,0,6.5
418,2020-02-17T06:57:00,1.1,北北西,2.4,北北西,4,91.4,0,0,0,6.5
419,2020-02-17T06:58:00,1,北北西,2.4,北北西,4,91.6,0,0,0,6.5
420,2020-02-17T06:59:00,0.9,北,2.2,北東,3.9,91.4,0,0,0,6.5
421,2020-02-17T07:00:00,0.8,北,2.2,北東,4.1,91.6,0,0,0,6.5
422,2020-02-17T07:01:00,0.6,北北西,1.7,北東,4.1,92.1,0,0,0,6.5
423,2020-02-17T07:02:00,0.5,北西,1.6,西,4.1,91.9,0,0,0,6.5
424,2020-02-17T07:03:00,0.5,西北西,1.6,西,4,91.6,0,0,0,6.5
425,2020-02-17T07:04:00,0.4,北西,1.6,西,4,91.6,0,0,0,6.5
426,2020-02-17T07:05:00,0.4,北北西,1,北北東,4,91.7,0,0,0,6.5
427,2020-02-17T07:06:00,0.4,北,1.1,東北東,4.1,92.1,0,0,0,6.5